Weather History for KXLL - April, 2013

Change the Weather History Date:

Sunday, April 21, 2013

  Actual Average (KABE) Record (KABE)
Temperature  
Mean Temperature 42 °F 52 °F  
Max Temperature 53 °F 64 °F 89 °F (1985)
Min Temperature 32 °F 40 °F 28 °F (1956)
Degree Days  
Heating Degree Days 22 13  
Month to date heating degree days 351  
Since 1 July heating degree days 5463  
Cooling Degree Days 0 0  
Month to date cooling degree days 0  
Year to date cooling degree days 0  
Moisture  
Dew Point 21 °F    
Average Humidity 42    
Maximum Humidity 64    
Minimum Humidity 28    
Precipitation  
Precipitation 0.00 in 0.12 in 1.47 in (1991)
Month to date precipitation 2.51  
Year to date precipitation 11.63  
Snow  
Snow 0.00 in 0.00 in 0.00 in ()
Month to date snowfall 0.9  
Since 1 July snowfall 32.8  
Snow Depth -    
Sea Level Pressure  
Sea Level Pressure 30.55 in    
Wind  
Wind Speed 8 mph (NNE)    
Max Wind Speed 15 mph    
Max Gust Speed 28 mph    
Visibility 10 miles    
Events      
T = Trace of Precipitation, MM = Missing Value Source: NWS Daily Summary

Daily Weather History Graph

Daily Weather History Graph

Search for Another Location

Airport or City:

Trip Planner

Search our weather history database for the weather conditions in past years. The results will help you decide how hot, cold, wet, or windy it might be!

Date:

Astronomy

Apr. 21, 2013 Rise Set
Actual Time 6:14 AM EDT 7:47 PM EDT
Civil Twilight 5:45 AM EDT 8:16 PM EDT
Nautical Twilight 5:10 AM EDT 8:51 PM EDT
Astronomical Twilight 4:33 AM EDT 9:28 PM EDT
Moon 3:29 PM EDT (4/21) 3:36 AM EDT (4/21)
Length of Visible Light 14h 31m
Length of Day
13h 33m
Waxing Gibbous, 79% of the Moon is Illuminated
Apr 21
Waxing Gibbous
Apr 25
Full
May 2
Last Quarter
May 9
New
May 18
First Quarter

Hourly Weather History & Observations

Time (EDT) Temp. Windchill Dew Point Humidity Pressure Visibility Wind Dir Wind Speed Gust Speed Precip Events Conditions
12:15 AM 41.0 °F 33.9 °F 21.2 °F 45% 30.37 in 10.0 mi North 12.7 mph 16.1 mph N/A   Clear
12:55 AM 37.4 °F 30.8 °F 19.4 °F 48% 30.38 in 10.0 mi NNW 9.2 mph - N/A   Clear
1:15 AM 37.4 °F 32.1 °F 19.4 °F 48% 30.39 in 10.0 mi North 6.9 mph - N/A   Clear
1:35 AM 37.4 °F 29.8 °F 19.4 °F 48% 30.40 in 10.0 mi North 11.5 mph - N/A   Clear
1:55 AM 37.4 °F 30.3 °F 19.4 °F 48% 30.40 in 10.0 mi North 10.4 mph - N/A   Clear
2:15 AM 35.6 °F 27.5 °F 19.4 °F 52% 30.40 in 10.0 mi North 11.5 mph - N/A   Clear
2:35 AM 35.6 °F 29.9 °F 19.4 °F 52% 30.41 in 10.0 mi North 6.9 mph - N/A   Clear
5:15 AM 33.8 °F 28.6 °F 19.4 °F 56% 30.47 in 10.0 mi NNW 5.8 mph - N/A   Clear
5:35 AM 32.0 °F 27.5 °F 19.4 °F 60% 30.49 in 10.0 mi NNW 4.6 mph - N/A   Clear
5:55 AM 32.0 °F 26.4 °F 19.4 °F 60% 30.49 in 10.0 mi NNW 5.8 mph - N/A   Clear
6:15 AM 32.0 °F 27.5 °F 19.4 °F 60% 30.51 in 10.0 mi NNW 4.6 mph - N/A   Clear
6:35 AM 32.0 °F 25.6 °F 21.2 °F 64% 30.52 in 10.0 mi NNW 6.9 mph - N/A   Clear
6:55 AM 33.8 °F 29.6 °F 21.2 °F 60% 30.53 in 10.0 mi NNW 4.6 mph - N/A   Clear
7:15 AM 33.8 °F 28.6 °F 21.2 °F 60% 30.54 in 10.0 mi North 5.8 mph - N/A   Clear
7:35 AM 35.6 °F 26.2 °F 21.2 °F 56% 30.55 in 10.0 mi NNW 15.0 mph 21.9 mph N/A   Clear
7:55 AM 35.6 °F 28.0 °F 21.2 °F 56% 30.56 in 10.0 mi North 10.4 mph 27.6 mph N/A   Clear
8:15 AM 35.6 °F 26.6 °F 21.2 °F 56% 30.57 in 10.0 mi North 13.8 mph 19.6 mph N/A   Clear
8:35 AM 37.4 °F 30.3 °F 21.2 °F 52% 30.57 in 10.0 mi NNE 10.4 mph 18.4 mph N/A   Clear
8:55 AM 37.4 °F 29.8 °F 19.4 °F 48% 30.58 in 10.0 mi North 11.5 mph - N/A   Clear
9:15 AM 37.4 °F 30.3 °F 21.2 °F 52% 30.59 in 10.0 mi North 10.4 mph - N/A   Clear
9:35 AM 39.2 °F 34.2 °F 19.4 °F 45% 30.59 in 10.0 mi North 6.9 mph - N/A   Clear
9:55 AM 41.0 °F 36.4 °F 21.2 °F 45% 30.59 in 10.0 mi North 6.9 mph - N/A   Clear
10:15 AM 41.0 °F 39.0 °F 19.4 °F 42% 30.59 in 10.0 mi NNW 3.5 mph 9.2 mph N/A   Clear
10:35 AM 41.0 °F 37.1 °F 19.4 °F 42% 30.60 in 10.0 mi NE 5.8 mph - N/A   Clear
10:55 AM 42.8 °F 37.5 °F 21.2 °F 42% 30.60 in 10.0 mi North 9.2 mph 16.1 mph N/A   Clear
11:15 AM 42.8 °F 40.1 °F 19.4 °F 39% 30.60 in 10.0 mi NW 4.6 mph 9.2 mph N/A   Clear
11:35 AM 44.6 °F 42.2 °F 21.2 °F 39% 30.59 in 10.0 mi NNW 4.6 mph - N/A   Clear
11:55 AM 42.8 °F 40.1 °F 19.4 °F 39% 30.59 in 10.0 mi North 4.6 mph - N/A   Clear
12:15 PM 44.6 °F 40.7 °F 19.4 °F 37% 30.59 in 10.0 mi NNE 6.9 mph - N/A   Clear
12:35 PM 46.4 °F 43.5 °F 21.2 °F 37% 30.58 in 10.0 mi North 5.8 mph - N/A   Clear
12:55 PM 46.4 °F 42.9 °F 21.2 °F 37% 30.58 in 10.0 mi North 6.9 mph - N/A   Clear
1:15 PM 48.2 °F - 21.2 °F 34% 30.57 in 10.0 mi NNE 8.1 mph - N/A   Clear
1:35 PM 48.2 °F - 21.2 °F 34% 30.57 in 10.0 mi North 5.8 mph - N/A   Clear
1:55 PM 48.2 °F - 19.4 °F 32% 30.57 in 10.0 mi Calm Calm - N/A   Clear
2:15 PM 50.0 °F - 23.0 °F 35% 30.57 in 10.0 mi NNW 3.5 mph - N/A   Clear
2:35 PM 50.0 °F - 21.2 °F 32% 30.56 in 10.0 mi ENE 3.5 mph - N/A   Clear
2:55 PM 51.8 °F - 23.0 °F 33% 30.55 in 10.0 mi NE 4.6 mph - N/A   Clear
3:15 PM 51.8 °F - 23.0 °F 33% 30.55 in 10.0 mi North 8.1 mph - N/A   Clear
3:35 PM 51.8 °F - 23.0 °F 33% 30.54 in 10.0 mi North 5.8 mph - N/A   Clear
3:55 PM 51.8 °F - 21.2 °F 30% 30.54 in 10.0 mi NE 3.5 mph - N/A   Clear
4:15 PM 51.8 °F - 21.2 °F 30% 30.54 in 10.0 mi NE 12.7 mph - N/A   Clear
4:35 PM 51.8 °F - 19.4 °F 28% 30.54 in 10.0 mi East 4.6 mph - N/A   Clear
4:55 PM 51.8 °F - 21.2 °F 30% 30.54 in 10.0 mi East 8.1 mph - N/A   Clear
5:15 PM 53.6 °F - 21.2 °F 28% 30.54 in 10.0 mi ENE 5.8 mph - N/A   Clear
5:35 PM 51.8 °F - 19.4 °F 28% 30.54 in 10.0 mi East 5.8 mph - N/A   Clear
5:55 PM 51.8 °F - 19.4 °F 28% 30.54 in 10.0 mi ENE 5.8 mph - N/A   Clear
6:15 PM 51.8 °F - 19.4 °F 28% 30.54 in 10.0 mi ESE 6.9 mph - N/A   Clear
6:35 PM 51.8 °F - 19.4 °F 28% 30.55 in 10.0 mi East 4.6 mph - N/A   Clear
6:55 PM 50.0 °F - 17.6 °F 28% 30.55 in 10.0 mi SSE 3.5 mph - N/A   Clear
7:15 PM 50.0 °F - 19.4 °F 30% 30.55 in 10.0 mi East 4.6 mph - N/A   Clear
7:35 PM 50.0 °F - 19.4 °F 30% 30.56 in 10.0 mi Calm Calm - N/A   Clear
7:55 PM 48.2 °F - 19.4 °F 32% 30.57 in 10.0 mi ESE 3.5 mph - N/A   Clear
8:15 PM 48.2 °F - 19.4 °F 32% 30.57 in 10.0 mi ESE 3.5 mph - N/A   Clear
8:35 PM 48.2 °F - 19.4 °F 32% 30.58 in 10.0 mi SE 4.6 mph - N/A   Clear
8:55 PM 46.4 °F 44.3 °F 21.2 °F 37% 30.58 in 10.0 mi SE 4.6 mph - N/A   Clear
9:15 PM 46.4 °F 43.5 °F 23.0 °F 40% 30.59 in 10.0 mi ESE 5.8 mph - N/A   Clear
9:35 PM 46.4 °F 45.2 °F 23.0 °F 40% 30.59 in 10.0 mi SE 3.5 mph - N/A   Clear
9:55 PM 44.6 °F 42.2 °F 23.0 °F 43% 30.59 in 10.0 mi SE 4.6 mph - N/A   Clear
10:15 PM 44.6 °F 40.2 °F 23.0 °F 43% 30.59 in 10.0 mi ESE 8.1 mph - N/A   Clear
10:35 PM 44.6 °F 40.2 °F 26.6 °F 49% 30.60 in 10.0 mi SE 8.1 mph - N/A   Clear
10:55 PM 44.6 °F 39.7 °F 26.6 °F 49% 30.60 in 10.0 mi SE 9.2 mph - N/A   Clear
11:15 PM 44.6 °F 39.2 °F 26.6 °F 49% 30.60 in 10.0 mi SSE 10.4 mph - N/A   Clear
11:35 PM 44.6 °F 39.7 °F 28.4 °F 53% 30.60 in 10.0 mi SSE 9.2 mph - N/A   Clear
11:55 PM 42.8 °F 40.1 °F 28.4 °F 57% 30.61 in 10.0 mi South 4.6 mph - N/A   Clear